contact: severine.martini@mio.osupytheas.fr, dominique.lefevre@mio.osupytheas.fr
Project:EMSO Ligure-ouest http://www.emso-fr.org/EMSO-France
Sensor Optode, line 4330 Serial 272 
DOI : "https://doi.org/10.17882/97948" 
Title:EMSO Ligure Ouest : Data BathyDock capteur Optode - deploiement "2023-04-28"
Datetime,Profondeur,Latitude,Longitude,optode_type,serial,O2_concentration,O2_saturation,Temperature,Calibrated_Phase,Temp_Compensated_Phase,phase_blue_light,phase_red_light,Amplitude_blue_light,Amplitude_red_light,thermistor_bridge
time,m,degree_north,degree_east,1,1,umol.l-1,%,degree_C,degree,degree,degree,degree,mV,mV,mV
2023-10-24T00:00:08,2420,42.8014,5.9826,4330,272,186.740,57.194,13.311,36.021,36.601,41.192,4.591,295.4,543.8,291.2
2023-10-24T00:03:07,2420,42.8014,5.9826,4330,272,186.578,57.151,13.316,36.029,36.609,41.201,4.592,295.4,543.7,291.0
2023-10-24T00:06:07,2420,42.8014,5.9826,4330,272,186.793,57.214,13.313,36.017,36.597,41.196,4.599,295.4,543.7,291.1
2023-10-24T00:09:07,2420,42.8014,5.9826,4330,272,186.504,57.123,13.312,36.036,36.616,41.207,4.590,295.3,543.8,291.2
2023-10-24T00:12:07,2420,42.8014,5.9826,4330,272,186.602,57.156,13.314,36.029,36.609,41.197,4.588,295.4,543.8,291.1
2023-10-24T00:15:07,2420,42.8014,5.9826,4330,272,186.740,57.194,13.310,36.021,36.601,41.192,4.590,295.4,543.8,291.2
2023-10-24T00:18:07,2420,42.8014,5.9826,4330,272,186.945,57.259,13.312,36.007,36.588,41.176,4.589,295.4,543.8,291.1
2023-10-24T00:21:07,2420,42.8014,5.9826,4330,272,186.591,57.151,13.313,36.030,36.610,41.197,4.587,295.5,543.8,291.1
2023-10-24T00:24:08,2420,42.8014,5.9826,4330,272,186.860,57.235,13.314,36.012,36.592,41.183,4.591,295.4,543.8,291.1
2023-10-24T00:27:08,2420,42.8014,5.9826,4330,272,186.484,57.125,13.318,36.035,36.615,41.206,4.592,295.4,543.7,291.0
2023-10-24T00:30:08,2420,42.8014,5.9826,4330,272,186.486,57.122,13.315,36.036,36.616,41.206,4.590,295.4,543.7,291.0
2023-10-24T00:33:07,2420,42.8014,5.9826,4330,272,186.727,57.198,13.316,36.019,36.600,41.189,4.590,295.4,543.7,291.0
2023-10-24T00:36:07,2420,42.8014,5.9826,4330,272,186.424,57.099,13.312,36.041,36.621,41.213,4.592,295.4,543.7,291.2
2023-10-24T00:39:07,2420,42.8014,5.9826,4330,272,186.729,57.194,13.313,36.021,36.601,41.194,4.593,295.4,543.8,291.1
2023-10-24T00:42:07,2420,42.8014,5.9826,4330,272,186.513,57.126,13.312,36.035,36.615,41.204,4.589,295.4,543.7,291.2
2023-10-24T00:45:07,2420,42.8014,5.9826,4330,272,186.658,57.173,13.313,36.025,36.605,41.198,4.593,295.4,543.7,291.1
2023-10-24T00:48:07,2420,42.8014,5.9826,4330,272,186.407,57.090,13.309,36.044,36.624,41.213,4.589,295.4,543.8,291.3
2023-10-24T00:51:07,2420,42.8014,5.9826,4330,272,186.648,57.163,13.308,36.029,36.609,41.203,4.594,295.5,543.8,291.3
2023-10-24T00:54:07,2420,42.8014,5.9826,4330,272,186.805,57.214,13.311,36.017,36.597,41.193,4.596,295.5,543.7,291.2
2023-10-24T00:57:08,2420,42.8014,5.9826,4330,272,186.675,57.169,13.307,36.027,36.607,41.207,4.600,295.5,543.8,291.3
2023-10-24T01:00:08,2420,42.8014,5.9826,4330,272,186.757,57.195,13.307,36.022,36.602,41.197,4.595,295.4,543.8,291.3
2023-10-24T01:03:07,2420,42.8014,5.9826,4330,272,186.604,57.147,13.307,36.032,36.612,41.202,4.590,295.4,543.8,291.3
2023-10-24T01:06:07,2420,42.8014,5.9826,4330,272,186.559,57.135,13.307,36.034,36.615,41.205,4.590,295.4,543.8,291.3
2023-10-24T01:09:07,2420,42.8014,5.9826,4330,272,186.541,57.132,13.310,36.034,36.614,41.202,4.587,295.4,543.8,291.2
2023-10-24T01:12:07,2420,42.8014,5.9826,4330,272,186.515,57.125,13.310,36.036,36.616,41.205,4.589,295.4,543.8,291.2
2023-10-24T01:15:07,2420,42.8014,5.9826,4330,272,186.709,57.188,13.314,36.022,36.602,41.189,4.587,295.4,543.8,291.1
2023-10-24T01:18:07,2420,42.8014,5.9826,4330,272,186.600,57.150,13.310,36.031,36.611,41.204,4.593,295.4,543.8,291.2
2023-10-24T01:21:07,2420,42.8014,5.9826,4330,272,186.506,57.121,13.310,36.037,36.617,41.203,4.586,295.4,543.7,291.2
2023-10-24T01:24:08,2420,42.8014,5.9826,4330,272,186.684,57.176,13.310,36.025,36.605,41.196,4.591,295.4,543.8,291.2
2023-10-24T01:27:08,2420,42.8014,5.9826,4330,272,186.828,57.221,13.310,36.015,36.596,41.188,4.592,295.3,543.8,291.2
2023-10-24T01:30:08,2420,42.8014,5.9826,4330,272,186.604,57.151,13.310,36.031,36.611,41.205,4.594,295.3,543.8,291.2
2023-10-24T01:33:07,2420,42.8014,5.9826,4330,272,186.792,57.211,13.311,36.017,36.598,41.190,4.592,295.4,543.8,291.2
2023-10-24T01:36:08,2420,42.8014,5.9826,4330,272,186.716,57.186,13.310,36.023,36.603,41.199,4.596,295.4,543.8,291.2
2023-10-24T01:39:08,2420,42.8014,5.9826,4330,272,186.738,57.191,13.309,36.022,36.603,41.191,4.589,295.4,543.8,291.3
2023-10-24T01:42:08,2420,42.8014,5.9826,4330,272,186.682,57.174,13.309,36.026,36.606,41.196,4.590,295.3,543.8,291.3
2023-10-24T01:45:08,2420,42.8014,5.9826,4330,272,186.670,57.172,13.310,36.027,36.607,41.201,4.594,295.4,543.8,291.2
2023-10-24T01:48:08,2420,42.8014,5.9826,4330,272,186.699,57.182,13.311,36.024,36.604,41.197,4.593,295.4,543.9,291.2
2023-10-24T01:51:08,2420,42.8014,5.9826,4330,272,186.915,57.249,13.311,36.010,36.590,41.179,4.590,295.4,543.8,291.2
2023-10-24T01:54:08,2420,42.8014,5.9826,4330,272,186.542,57.133,13.311,36.034,36.614,41.204,4.590,295.4,543.8,291.2
2023-10-24T01:57:07,2420,42.8014,5.9826,4330,272,186.474,57.114,13.312,36.038,36.618,41.206,4.588,295.4,543.8,291.2
2023-10-24T02:00:07,2420,42.8014,5.9826,4330,272,186.609,57.152,13.309,36.031,36.611,41.203,4.592,295.4,543.8,291.3
2023-10-24T02:03:08,2420,42.8014,5.9826,4330,272,186.477,57.115,13.312,36.038,36.618,41.211,4.593,295.5,543.8,291.2
2023-10-24T02:06:08,2420,42.8014,5.9826,4330,272,186.630,57.159,13.310,36.029,36.609,41.203,4.594,295.4,543.8,291.2
2023-10-24T02:09:07,2420,42.8014,5.9826,4330,272,186.531,57.132,13.312,36.034,36.614,41.202,4.588,295.4,543.8,291.2
2023-10-24T02:12:07,2420,42.8014,5.9826,4330,272,186.818,57.218,13.310,36.016,36.596,41.186,4.589,295.4,543.8,291.2
2023-10-24T02:15:07,2420,42.8014,5.9826,4330,272,186.674,57.172,13.309,36.026,36.606,41.194,4.588,295.5,543.8,291.2
2023-10-24T02:18:07,2420,42.8014,5.9826,4330,272,186.754,57.199,13.311,36.021,36.601,41.192,4.592,295.5,543.9,291.2
2023-10-24T02:21:07,2420,42.8014,5.9826,4330,272,186.618,57.157,13.311,36.029,36.609,41.200,4.590,295.4,543.8,291.2
2023-10-24T02:24:07,2420,42.8014,5.9826,4330,272,186.592,57.147,13.309,36.032,36.612,41.205,4.593,295.4,543.9,291.3
2023-10-24T02:27:08,2420,42.8014,5.9826,4330,272,186.465,57.107,13.308,36.041,36.621,41.205,4.584,295.6,543.8,291.3
2023-10-24T02:30:08,2420,42.8014,5.9826,4330,272,186.581,57.143,13.309,36.033,36.613,41.203,4.591,295.4,543.9,291.3
2023-10-24T02:33:07,2420,42.8014,5.9826,4330,272,186.688,57.177,13.309,36.025,36.606,41.197,4.592,295.4,543.8,291.2
2023-10-24T02:36:07,2420,42.8014,5.9826,4330,272,186.494,57.118,13.310,36.038,36.618,41.215,4.597,295.4,543.8,291.2
2023-10-24T02:39:07,2420,42.8014,5.9826,4330,272,186.463,57.111,13.312,36.038,36.618,41.211,4.593,295.5,543.8,291.2
2023-10-24T02:42:07,2420,42.8014,5.9826,4330,272,186.480,57.111,13.308,36.040,36.620,41.208,4.588,295.5,543.8,291.3
2023-10-24T02:45:07,2420,42.8014,5.9826,4330,272,186.734,57.192,13.310,36.022,36.602,41.194,4.592,295.5,543.8,291.2
2023-10-24T02:48:07,2420,42.8014,5.9826,4330,272,186.583,57.148,13.312,36.031,36.611,41.203,4.591,295.5,543.8,291.2
2023-10-24T02:51:07,2420,42.8014,5.9826,4330,272,186.678,57.180,13.314,36.024,36.604,41.193,4.590,295.5,543.8,291.1
2023-10-24T02:54:07,2420,42.8014,5.9826,4330,272,186.358,57.083,13.316,36.044,36.624,41.212,4.588,295.5,543.8,291.0
2023-10-24T02:57:08,2420,42.8014,5.9826,4330,272,186.208,57.035,13.314,36.055,36.635,41.228,4.593,295.5,543.8,291.1
2023-10-24T03:00:08,2420,42.8014,5.9826,4330,272,186.659,57.172,13.313,36.026,36.606,41.200,4.594,295.5,543.8,291.1
2023-10-24T03:03:07,2420,42.8014,5.9826,4330,272,186.548,57.137,13.312,36.033,36.613,41.210,4.597,295.5,543.8,291.2
2023-10-24T03:06:07,2420,42.8014,5.9826,4330,272,186.581,57.147,13.312,36.031,36.611,41.194,4.583,295.6,543.7,291.2
2023-10-24T03:09:07,2420,42.8014,5.9826,4330,272,186.388,57.086,13.311,36.044,36.624,41.216,4.593,295.5,543.7,291.2
2023-10-24T03:12:07,2420,42.8014,5.9826,4330,272,186.522,57.127,13.311,36.036,36.616,41.208,4.592,295.4,543.8,291.2
2023-10-24T03:15:07,2420,42.8014,5.9826,4330,272,186.489,57.123,13.315,36.035,36.615,41.208,4.593,295.5,543.8,291.1
2023-10-24T03:18:07,2420,42.8014,5.9826,4330,272,186.660,57.177,13.316,36.024,36.604,41.195,4.592,295.5,543.8,291.0
2023-10-24T03:21:07,2420,42.8014,5.9826,4330,272,186.392,57.089,13.312,36.044,36.624,41.213,4.589,295.5,543.7,291.2
2023-10-24T03:24:07,2420,42.8014,5.9826,4330,272,186.597,57.151,13.311,36.030,36.610,41.204,4.594,295.5,543.8,291.2
2023-10-24T03:27:08,2420,42.8014,5.9826,4330,272,186.411,57.096,13.313,36.042,36.622,41.211,4.589,295.5,543.7,291.1
2023-10-24T03:30:08,2420,42.8014,5.9826,4330,272,186.397,57.089,13.311,36.044,36.624,41.218,4.594,295.5,543.8,291.2
2023-10-24T03:33:07,2420,42.8014,5.9826,4330,272,186.405,57.095,13.313,36.042,36.622,41.211,4.589,295.5,543.8,291.1
2023-10-24T03:36:07,2420,42.8014,5.9826,4330,272,186.582,57.149,13.313,36.031,36.611,41.202,4.591,295.5,543.8,291.1
2023-10-24T03:39:08,2420,42.8014,5.9826,4330,272,186.328,57.072,13.314,36.047,36.627,41.215,4.589,295.6,543.8,291.1
2023-10-24T03:42:08,2420,42.8014,5.9826,4330,272,186.253,57.050,13.315,36.051,36.631,41.216,4.585,295.5,543.8,291.1
2023-10-24T03:45:08,2420,42.8014,5.9826,4330,272,186.214,57.038,13.314,36.054,36.634,41.223,4.589,295.5,543.8,291.1
2023-10-24T03:48:08,2420,42.8014,5.9826,4330,272,186.489,57.120,13.312,36.037,36.617,41.211,4.593,295.6,543.8,291.1
2023-10-24T03:51:08,2420,42.8014,5.9826,4330,272,186.466,57.112,13.312,36.039,36.619,41.214,4.595,295.5,543.9,291.2
2023-10-24T03:54:08,2420,42.8014,5.9826,4330,272,186.812,57.219,13.313,36.015,36.596,41.185,4.590,295.5,543.8,291.1
2023-10-24T03:57:07,2420,42.8014,5.9826,4330,272,186.603,57.155,13.313,36.029,36.609,41.198,4.589,295.4,543.8,291.1
2023-10-24T04:00:07,2420,42.8014,5.9826,4330,272,186.420,57.102,13.315,36.040,36.620,41.211,4.591,295.5,543.8,291.0
2023-10-24T04:03:07,2420,42.8014,5.9826,4330,272,186.395,57.095,13.316,36.041,36.621,41.217,4.595,295.5,543.7,291.0
2023-10-24T04:06:07,2420,42.8014,5.9826,4330,272,186.464,57.112,13.312,36.038,36.618,41.211,4.593,295.4,543.7,291.2
2023-10-24T04:09:07,2420,42.8014,5.9826,4330,272,186.272,57.060,13.318,36.048,36.628,41.216,4.588,295.5,543.7,291.0
2023-10-24T04:12:07,2420,42.8014,5.9826,4330,272,186.536,57.133,13.312,36.035,36.615,41.205,4.591,295.5,543.7,291.2
2023-10-24T04:15:08,2420,42.8014,5.9826,4330,272,186.352,57.080,13.314,36.045,36.625,41.220,4.595,295.6,543.8,291.1
2023-10-24T04:18:08,2420,42.8014,5.9826,4330,272,186.443,57.111,13.317,36.038,36.618,41.214,4.597,295.5,543.8,291.0
2023-10-24T04:21:08,2420,42.8014,5.9826,4330,272,186.555,57.149,13.319,36.029,36.609,41.202,4.593,295.4,543.7,290.9
2023-10-24T04:24:08,2420,42.8014,5.9826,4330,272,186.720,57.195,13.316,36.020,36.600,41.191,4.591,295.6,543.7,291.0
2023-10-24T04:27:08,2420,42.8014,5.9826,4330,272,186.649,57.170,13.314,36.026,36.606,41.204,4.597,295.5,543.8,291.1
2023-10-24T04:30:07,2420,42.8014,5.9826,4330,272,186.470,57.121,13.318,36.035,36.615,41.207,4.592,295.5,543.7,291.0
2023-10-24T04:33:07,2420,42.8014,5.9826,4330,272,186.286,57.065,13.319,36.047,36.627,41.218,4.592,295.4,543.7,290.9
2023-10-24T04:36:07,2420,42.8014,5.9826,4330,272,186.441,57.114,13.319,36.037,36.617,41.212,4.595,295.5,543.7,290.9
2023-10-24T04:39:07,2420,42.8014,5.9826,4330,272,186.297,57.075,13.324,36.043,36.623,41.212,4.588,295.6,543.7,290.8
2023-10-24T04:42:07,2420,42.8014,5.9826,4330,272,186.353,57.086,13.319,36.043,36.623,41.212,4.589,295.5,543.7,290.9
2023-10-24T04:45:07,2420,42.8014,5.9826,4330,272,186.369,57.089,13.317,36.042,36.622,41.216,4.594,295.5,543.8,291.0
2023-10-24T04:48:08,2420,42.8014,5.9826,4330,272,186.241,57.047,13.315,36.051,36.631,41.226,4.595,295.5,543.7,291.1
2023-10-24T04:51:08,2420,42.8014,5.9826,4330,272,186.464,57.115,13.315,36.037,36.617,41.212,4.595,295.6,543.7,291.1
2023-10-24T04:54:08,2420,42.8014,5.9826,4330,272,186.507,57.125,13.313,36.036,36.616,41.209,4.593,295.6,543.8,291.1
2023-10-24T04:57:08,2420,42.8014,5.9826,4330,272,186.644,57.168,13.313,36.026,36.606,41.200,4.594,295.5,543.8,291.1
2023-10-24T05:00:07,2420,42.8014,5.9826,4330,272,186.291,57.061,13.314,36.048,36.628,41.215,4.587,295.6,543.8,291.1
2023-10-24T05:03:07,2420,42.8014,5.9826,4330,272,186.624,57.166,13.317,36.026,36.606,41.201,4.595,295.5,543.8,291.0
2023-10-24T05:06:07,2420,42.8014,5.9826,4330,272,186.477,57.120,13.316,36.036,36.616,41.204,4.589,295.5,543.8,291.0
2023-10-24T05:09:07,2420,42.8014,5.9826,4330,272,186.609,57.169,13.322,36.024,36.605,41.196,4.591,295.4,543.8,290.8
2023-10-24T05:12:07,2420,42.8014,5.9826,4330,272,186.235,57.049,13.318,36.050,36.630,41.217,4.586,295.5,543.7,291.0
2023-10-24T05:15:08,2420,42.8014,5.9826,4330,272,186.373,57.093,13.319,36.041,36.621,41.213,4.592,295.4,543.6,290.9
2023-10-24T05:18:08,2420,42.8014,5.9826,4330,272,186.469,57.122,13.319,36.035,36.615,41.206,4.591,295.5,543.7,290.9
2023-10-24T05:21:08,2420,42.8014,5.9826,4330,272,186.416,57.118,13.329,36.033,36.613,41.207,4.594,295.5,543.7,290.6
2023-10-24T05:24:08,2420,42.8014,5.9826,4330,272,186.111,57.022,13.327,36.054,36.634,41.222,4.588,295.5,543.7,290.7
2023-10-24T05:27:08,2420,42.8014,5.9826,4330,272,186.266,57.063,13.322,36.047,36.627,41.218,4.592,295.6,543.7,290.8
2023-10-24T05:30:07,2420,42.8014,5.9826,4330,272,186.281,57.069,13.323,36.045,36.625,41.216,4.592,295.7,543.6,290.8
2023-10-24T05:33:07,2420,42.8014,5.9826,4330,272,186.532,57.146,13.323,36.029,36.609,41.201,4.592,295.6,543.7,290.8
2023-10-24T05:36:07,2420,42.8014,5.9826,4330,272,186.350,57.094,13.326,36.039,36.619,41.208,4.589,295.5,543.7,290.7
2023-10-24T05:39:07,2420,42.8014,5.9826,4330,272,186.257,57.069,13.328,36.044,36.624,41.216,4.591,295.6,543.7,290.6
2023-10-24T05:42:08,2420,42.8014,5.9826,4330,272,186.343,57.096,13.329,36.038,36.618,41.208,4.591,295.6,543.6,290.6
2023-10-24T05:45:08,2420,42.8014,5.9826,4330,272,186.465,57.126,13.323,36.033,36.613,41.206,4.593,295.6,543.6,290.8
2023-10-24T05:48:08,2420,42.8014,5.9826,4330,272,186.154,57.039,13.330,36.050,36.630,41.217,4.587,295.5,543.7,290.6
2023-10-24T05:51:08,2420,42.8014,5.9826,4330,272,186.168,57.047,13.332,36.048,36.628,41.224,4.597,295.6,543.6,290.5
2023-10-24T05:54:08,2420,42.8014,5.9826,4330,272,186.272,57.077,13.331,36.042,36.622,41.216,4.595,295.6,543.6,290.5
2023-10-24T05:57:08,2420,42.8014,5.9826,4330,272,186.302,57.090,13.335,36.038,36.618,41.215,4.597,295.6,543.7,290.4
2023-10-24T06:00:08,2420,42.8014,5.9826,4330,272,186.155,57.051,13.339,36.046,36.626,41.218,4.592,295.6,543.6,290.3
2023-10-24T06:03:07,2420,42.8014,5.9826,4330,272,186.310,57.094,13.336,36.038,36.618,41.211,4.593,295.6,543.6,290.4
2023-10-24T06:06:07,2420,42.8014,5.9826,4330,272,186.264,57.080,13.336,36.040,36.620,41.215,4.595,295.6,543.6,290.4
2023-10-24T06:09:07,2420,42.8014,5.9826,4330,272,186.215,57.055,13.327,36.048,36.627,41.218,4.591,295.6,543.6,290.7
2023-10-24T06:12:07,2420,42.8014,5.9826,4330,272,186.219,57.058,13.329,36.046,36.626,41.213,4.587,295.5,543.7,290.6
2023-10-24T06:15:07,2420,42.8014,5.9826,4330,272,186.323,57.090,13.330,36.039,36.619,41.214,4.594,295.5,543.7,290.6
2023-10-24T06:18:07,2420,42.8014,5.9826,4330,272,185.987,56.985,13.328,36.062,36.642,41.230,4.589,295.6,543.6,290.6
2023-10-24T06:21:08,2420,42.8014,5.9826,4330,272,186.429,57.118,13.326,36.034,36.614,41.208,4.593,295.5,543.6,290.7
2023-10-24T06:24:08,2420,42.8014,5.9826,4330,272,185.943,56.965,13.323,36.068,36.648,41.239,4.591,295.6,543.7,290.8
2023-10-24T06:27:08,2420,42.8014,5.9826,4330,272,186.200,57.046,13.325,36.050,36.630,41.222,4.593,295.6,543.7,290.7
2023-10-24T06:30:08,2420,42.8014,5.9826,4330,272,186.306,57.081,13.327,36.042,36.622,41.213,4.591,295.5,543.6,290.7
2023-10-24T06:33:07,2420,42.8014,5.9826,4330,272,186.300,57.081,13.328,36.042,36.622,41.215,4.593,295.5,543.7,290.7
2023-10-24T06:36:07,2420,42.8014,5.9826,4330,272,186.293,57.069,13.320,36.046,36.626,41.220,4.594,295.5,543.7,290.9
2023-10-24T06:39:07,2420,42.8014,5.9826,4330,272,186.405,57.111,13.326,36.035,36.615,41.208,4.593,295.5,543.6,290.7
2023-10-24T06:42:07,2420,42.8014,5.9826,4330,272,186.203,57.048,13.325,36.049,36.629,41.220,4.591,295.5,543.7,290.7
2023-10-24T06:45:07,2420,42.8014,5.9826,4330,272,186.275,57.070,13.325,36.045,36.625,41.216,4.591,295.5,543.6,290.7
2023-10-24T06:48:07,2420,42.8014,5.9826,4330,272,186.387,57.103,13.324,36.038,36.618,41.207,4.590,295.6,543.6,290.8
2023-10-24T06:51:07,2420,42.8014,5.9826,4330,272,186.303,57.078,13.325,36.042,36.622,41.211,4.588,295.6,543.7,290.7
2023-10-24T06:54:07,2420,42.8014,5.9826,4330,272,186.212,57.046,13.321,36.051,36.631,41.220,4.589,295.5,543.7,290.9
2023-10-24T06:57:07,2420,42.8014,5.9826,4330,272,186.133,57.033,13.330,36.052,36.632,41.220,4.588,295.5,543.6,290.6
2023-10-24T07:00:08,2420,42.8014,5.9826,4330,272,186.203,57.054,13.330,36.047,36.627,41.217,4.591,295.5,543.7,290.6
2023-10-24T07:03:07,2420,42.8014,5.9826,4330,272,186.287,57.071,13.323,36.045,36.625,41.212,4.588,295.6,543.6,290.8
2023-10-24T07:06:07,2420,42.8014,5.9826,4330,272,186.344,57.093,13.327,36.040,36.620,41.212,4.592,295.5,543.7,290.7
2023-10-24T07:09:07,2420,42.8014,5.9826,4330,272,186.075,57.024,13.337,36.052,36.632,41.225,4.593,295.6,543.7,290.3
2023-10-24T07:12:07,2420,42.8014,5.9826,4330,272,186.382,57.105,13.327,36.036,36.616,41.211,4.594,295.5,543.7,290.7
2023-10-24T07:15:07,2420,42.8014,5.9826,4330,272,186.478,57.136,13.328,36.030,36.610,41.202,4.592,295.6,543.6,290.6
2023-10-24T07:18:07,2420,42.8014,5.9826,4330,272,186.321,57.087,13.327,36.041,36.621,41.215,4.594,295.5,543.6,290.7
2023-10-24T07:21:07,2420,42.8014,5.9826,4330,272,186.223,57.067,13.335,36.043,36.623,41.220,4.597,295.6,543.6,290.4
2023-10-24T07:24:07,2420,42.8014,5.9826,4330,272,186.526,57.154,13.331,36.025,36.605,41.198,4.593,295.4,543.6,290.6
2023-10-24T07:27:07,2420,42.8014,5.9826,4330,272,186.204,57.058,13.333,36.045,36.625,41.214,4.588,295.5,543.6,290.5
2023-10-24T07:30:07,2420,42.8014,5.9826,4330,272,186.086,57.032,13.341,36.049,36.629,41.222,4.593,295.5,543.6,290.2
2023-10-24T07:33:07,2420,42.8014,5.9826,4330,272,186.274,57.086,13.338,36.039,36.619,41.213,4.595,295.5,543.6,290.3
2023-10-24T07:36:07,2420,42.8014,5.9826,4330,272,186.099,57.034,13.339,36.049,36.629,41.222,4.593,295.6,543.6,290.3
2023-10-24T07:39:07,2420,42.8014,5.9826,4330,272,186.099,57.031,13.337,36.050,36.630,41.223,4.593,295.6,543.6,290.3
2023-10-24T07:42:07,2420,42.8014,5.9826,4330,272,186.145,57.050,13.341,36.045,36.625,41.214,4.589,295.6,543.5,290.2
2023-10-24T07:45:08,2420,42.8014,5.9826,4330,272,186.273,57.090,13.342,36.037,36.617,41.206,4.589,295.6,543.6,290.2
2023-10-24T07:48:08,2420,42.8014,5.9826,4330,272,186.146,57.049,13.340,36.046,36.626,41.220,4.594,295.6,543.6,290.2
2023-10-24T07:51:08,2420,42.8014,5.9826,4330,272,186.061,57.020,13.337,36.052,36.632,41.223,4.590,295.7,543.6,290.3
2023-10-24T07:54:08,2420,42.8014,5.9826,4330,272,186.206,57.063,13.336,36.044,36.624,41.216,4.593,295.6,543.7,290.4
2023-10-24T07:57:07,2420,42.8014,5.9826,4330,272,185.924,56.977,13.337,36.062,36.642,41.228,4.586,295.6,543.6,290.4
2023-10-24T08:00:07,2420,42.8014,5.9826,4330,272,186.061,57.011,13.330,36.056,36.636,41.223,4.587,295.6,543.6,290.6
2023-10-24T08:03:08,2420,42.8014,5.9826,4330,272,185.934,56.979,13.336,36.061,36.641,41.236,4.595,295.7,543.6,290.4
2023-10-24T08:06:07,2420,42.8014,5.9826,4330,272,186.000,57.006,13.341,36.055,36.635,41.226,4.591,295.6,543.6,290.2
2023-10-24T08:09:07,2420,42.8014,5.9826,4330,272,185.912,56.972,13.336,36.063,36.643,41.231,4.588,295.6,543.6,290.4
2023-10-24T08:12:07,2420,42.8014,5.9826,4330,272,185.941,56.971,13.327,36.065,36.645,41.233,4.588,295.7,543.6,290.7
2023-10-24T08:15:07,2420,42.8014,5.9826,4330,272,185.936,56.964,13.324,36.067,36.647,41.239,4.592,295.8,543.7,290.8
2023-10-24T08:18:07,2420,42.8014,5.9826,4330,272,186.007,56.987,13.325,36.062,36.642,41.234,4.593,295.7,543.6,290.7
2023-10-24T08:21:07,2420,42.8014,5.9826,4330,272,186.206,57.046,13.323,36.050,36.630,41.219,4.590,295.6,543.7,290.8
2023-10-24T08:24:07,2420,42.8014,5.9826,4330,272,186.221,57.048,13.321,36.050,36.630,41.218,4.588,295.7,543.7,290.9
2023-10-24T08:27:08,2420,42.8014,5.9826,4330,272,186.338,57.084,13.321,36.043,36.623,41.220,4.598,295.7,543.8,290.9
2023-10-24T08:30:08,2420,42.8014,5.9826,4330,272,186.174,57.034,13.322,36.053,36.633,41.223,4.590,295.7,543.7,290.8
2023-10-24T08:33:07,2420,42.8014,5.9826,4330,272,186.240,57.054,13.321,36.049,36.629,41.224,4.595,295.6,543.7,290.9
2023-10-24T08:36:07,2420,42.8014,5.9826,4330,272,186.224,57.047,13.319,36.051,36.631,41.223,4.592,295.6,543.7,290.9
2023-10-24T08:39:07,2420,42.8014,5.9826,4330,272,186.225,57.047,13.319,36.051,36.631,41.222,4.591,295.6,543.6,290.9
2023-10-24T08:42:07,2420,42.8014,5.9826,4330,272,186.317,57.074,13.318,36.046,36.626,41.217,4.591,295.5,543.7,291.0
2023-10-24T08:45:07,2420,42.8014,5.9826,4330,272,186.236,57.050,13.319,36.050,36.630,41.222,4.592,295.6,543.7,290.9
2023-10-24T08:48:07,2420,42.8014,5.9826,4330,272,186.493,57.131,13.321,36.033,36.613,41.206,4.593,295.5,543.6,290.9
2023-10-24T08:51:07,2420,42.8014,5.9826,4330,272,186.518,57.137,13.319,36.032,36.612,41.203,4.591,295.5,543.7,290.9
2023-10-24T08:54:07,2420,42.8014,5.9826,4330,272,186.334,57.083,13.321,36.043,36.623,41.223,4.600,295.5,543.7,290.9
2023-10-24T08:57:07,2420,42.8014,5.9826,4330,272,186.383,57.096,13.320,36.040,36.620,41.218,4.598,295.5,543.7,290.9
2023-10-24T09:00:07,2420,42.8014,5.9826,4330,272,186.257,57.056,13.319,36.049,36.629,41.218,4.590,295.5,543.7,290.9
2023-10-24T09:03:07,2420,42.8014,5.9826,4330,272,186.305,57.068,13.317,36.047,36.627,41.217,4.590,295.6,543.7,291.0
2023-10-24T09:06:07,2420,42.8014,5.9826,4330,272,186.325,57.077,13.318,36.045,36.625,41.212,4.587,295.5,543.7,291.0
2023-10-24T09:09:07,2420,42.8014,5.9826,4330,272,186.262,57.055,13.316,36.050,36.630,41.222,4.593,295.6,543.8,291.0
2023-10-24T09:12:08,2420,42.8014,5.9826,4330,272,186.462,57.116,13.316,36.036,36.616,41.211,4.594,295.5,543.8,291.0
2023-10-24T09:15:08,2420,42.8014,5.9826,4330,272,186.432,57.107,13.317,36.039,36.619,41.204,4.586,295.5,543.8,291.0
2023-10-24T09:18:08,2420,42.8014,5.9826,4330,272,186.281,57.060,13.316,36.049,36.629,41.216,4.588,295.6,543.8,291.0
2023-10-24T09:21:08,2420,42.8014,5.9826,4330,272,186.157,57.022,13.316,36.056,36.636,41.224,4.588,295.4,543.8,291.0
2023-10-24T09:24:08,2420,42.8014,5.9826,4330,272,186.442,57.111,13.317,36.038,36.618,41.206,4.588,295.5,543.8,291.0
2023-10-24T09:27:07,2420,42.8014,5.9826,4330,272,186.381,57.091,13.316,36.042,36.622,41.211,4.589,295.5,543.8,291.0
2023-10-24T09:30:07,2420,42.8014,5.9826,4330,272,186.602,57.157,13.315,36.028,36.608,41.201,4.593,295.5,543.7,291.1
2023-10-24T09:33:08,2420,42.8014,5.9826,4330,272,186.446,57.116,13.320,36.036,36.616,41.208,4.592,295.5,543.7,290.9
2023-10-24T09:36:07,2420,42.8014,5.9826,4330,272,186.526,57.135,13.316,36.033,36.613,41.210,4.598,295.5,543.7,291.0
2023-10-24T09:39:07,2420,42.8014,5.9826,4330,272,186.255,57.061,13.322,36.047,36.627,41.221,4.595,295.5,543.7,290.8
2023-10-24T09:42:07,2420,42.8014,5.9826,4330,272,186.366,57.089,13.318,36.042,36.622,41.211,4.590,295.5,543.7,291.0
2023-10-24T09:45:07,2420,42.8014,5.9826,4330,272,186.273,57.060,13.318,36.048,36.628,41.218,4.590,295.5,543.8,291.0
2023-10-24T09:48:08,2420,42.8014,5.9826,4330,272,186.498,57.124,13.313,36.036,36.616,41.209,4.593,295.5,543.8,291.1
2023-10-24T09:51:08,2420,42.8014,5.9826,4330,272,186.435,57.105,13.314,36.039,36.619,41.208,4.588,295.5,543.8,291.1
2023-10-24T09:54:08,2420,42.8014,5.9826,4330,272,186.337,57.076,13.315,36.045,36.625,41.215,4.590,295.6,543.9,291.1
2023-10-24T09:57:08,2420,42.8014,5.9826,4330,272,186.126,57.013,13.317,36.058,36.638,41.232,4.593,295.4,543.8,291.0
2023-10-24T10:00:08,2420,42.8014,5.9826,4330,272,186.506,57.130,13.317,36.034,36.614,41.204,4.591,295.5,543.7,291.0